Simultaneous Nadir Overpasses (SNOs) Predictions

Prediction of SNOs between GOES-17 and NOAA-20 Satellite Orbit:

Table of predicted SNOs for the next 14.0 days since TLE Epoch: 7/9/2022
Index Date Time (GOES-17) GOES-17 Lat,Lon NOAA-20 Lat,Lon Distance(km) Time Diff (sec)
1 07/10/2022 10:46:13 0.04,-137.27 0.64,-139.83 292.59 80
2 07/11/2022 10:24:49 0.03,-137.27 -0.42,-135.31 224.42 80
3 07/12/2022 22:49:24 -0.03,-137.27 -0.76,-140.61 380.57 80
4 07/13/2022 22:27:58 -0.02,-137.27 0.24,-136.07 136.09 80
5 07/15/2022 10:52:25 0.02,-137.28 0.96,-141.33 462.69 80
6 07/16/2022 10:31:00 0.02,-137.28 -0.10,-136.81 54.03 80
7 07/18/2022 22:34:10 -0.03,-137.27 -0.07,-137.58 34.75 80
8 07/19/2022 22:15:25 -0.03,-137.27 0.94,-133.05 481.93 80
9 07/21/2022 10:39:51 0.02,-137.28 0.26,-138.31 117.48 80
10 07/22/2022 10:18:25 0.02,-137.27 -0.74,-133.77 398.51 80
